Weather Roundup
Issued by NWS Springfield, MO

Home | Current Version | Previous Version | Text Only | Print | Product List | Glossary On
Versions: 1 2 3 4 5 6 7 8 9 10 11 12 13 14 15 16 17 18 19 20 21 22 23 24 25 26 27 28 29 30 31 32 33 34 35 36 37 38 39 40 41 42 43 44 45 46 47 48 49 50
000
NZUS99 KSGF 301707
HRRSGF

HOURLY WEATHER
NATIONAL WEATHER SERVICE SPRINGFIELD MO
1200 PM CDT TUE AUG 30 2016

......SGF CWA......

CITY           SKY/WX    TMP DP  RH WIND       PRES   REMARKS
SPRINGFIELD    MOSUNNY   89  70  53 NE7       30.15F HX  94
JOPLIN         MOSUNNY   86  72  62 CALM      30.15S HX  92
WEST PLAINS    MOSUNNY   87  73  62 CALM      30.17S HX  94
ROLLA          MOSUNNY   86  73  65 NW3       30.16S HX  93
OSAGE BEACH    MOSUNNY   86  74  67 E5        30.16S HX  94

......SURROUNDING SGF CWA......

CITY           SKY/WX    TMP DP  RH WIND       PRES   REMARKS
CHANUTE        SUNNY     86  72  62 S5        30.15S HX  92
PARSONS        SUNNY     87  72  60 CALM      30.15F HX  93
COFFEYVILLE    SUNNY     87  74  64 N5        30.14S HX  95
EMPORIA        CLOUDY    82  73  74 CALM      30.17S
GROVE OK       MOSUNNY   90  72  55 E3        30.14S HX  96
ROGERS AR      PTSUNNY   85  73  67 VRB5      30.16F HX  91
SILOAM SPRINGS MOSUNNY   88  66  48 CALM      30.14F HX  90
HARRISON AR    MOSUNNY   85  73  67 E6        30.16F HX  91
NEAR YELLVILLE PTSUNNY   88  73  62 E3        30.10F HX  96

......KANSAS AND MISSOURI......

CITY           SKY/WX    TMP DP  RH WIND       PRES   REMARKS
KANSAS CTY INT PTSUNNY   80  71  74 N6        30.18F
DOWNTOWN KC    CLOUDY    83  72  69 N5        30.16S
COLUMBIA       MOSUNNY   85  73  67 CALM      30.16S HX  91
SEDALIA        PTSUNNY   87  73  62 VRB5      30.17S HX  94
ST JOSEPH      MOSUNNY   80  71  74 E7        30.18F
ST LOUIS       PTSUNNY   91  69  48 CALM      30.12F HX  96
SPIRIT OF STL  PTSUNNY   90  73  57 W7        30.11F HX  98
KIRKSVILLE     CLOUDY    76  71  85 SE7       30.18F
WICHITA        MOSUNNY   87  69  54 E5        30.16S HX  91
TOPEKA         PTSUNNY   82  73  74 NE7       30.17S
OLATHE         CLOUDY    80  71  74 N6        30.18S

......TENNESSEE......

CITY           SKY/WX    TMP DP  RH WIND       PRES   REMARKS
MEMPHIS        MOSUNNY   93  68  43 CALM      30.07F HX  97
NASHVILLE      SUNNY     90  68  48 CALM      30.09F HX  93

......ARKANSAS.......

CITY           SKY/WX    TMP DP  RH WIND       PRES   REMARKS
FAYETTEVILLE   SUNNY     87  70  56 VRB3      30.14F HX  92
FT SMITH       SUNNY     88  73  61 NE6       30.09S HX  95
LITTLE ROCK    MOSUNNY   92  73  53 NE7       30.07F HX 100

......OKLAHOMA.......

CITY           SKY/WX    TMP DP  RH WIND       PRES   REMARKS
TULSA          MOSUNNY   89  74  60 CALM      30.11S HX  98
PONCA CITY     SUNNY     87  71  58 CALM      30.14S HX  93
MCALESTER      MOSUNNY   89  71  55 N5        30.11S HX  95
OKLAHOMA CITY  PTSUNNY   88  69  53 CALM      30.14S HX  92

......IOWA............

CITY           SKY/WX    TMP DP  RH WIND       PRES   REMARKS
DES MOINES     CLOUDY    78  70  76 VRB3      30.16F
QUAD CITIES    MOSUNNY   79  70  74 W5        30.14S

......ILLINOIS........

CITY           SKY/WX    TMP DP  RH WIND       PRES   REMARKS
QUINCY         LGT RAIN  71  69  93 SW10      30.17R
CHICAGO        CLOUDY    80  71  74 N5        30.12F




USA.gov is the U.S. government's official web portal to all federal, state and local government web resources and services.